Location: Sun City Center
(27.6996°N, 82.3528°W)
Time: 07:09:08
(UTC-04:00)

Cosmos 2084 Rocket - Visible Passes

Search period start: 06 May 2016 00:00
Search period end: 16 May 2016 00:00
Orbit: 501 x 685 km, 62.8° (Epoch: 06 May)

Date Brightness Start Highest point End Pass type
(mag) Time Alt. Az. Time Alt. Az. Time Alt. Az.
12 May 6.2 23:03:27 10° N 23:04:02 13° N 23:04:02 13° N visible
13 May 6.1 23:11:49 10° NNW 23:12:45 16° NNW 23:12:45 16° NNW visible
14 May 6.1 23:20:33 10° NNW 23:21:30 17° NNW 23:21:30 17° NNW visible
15 May 5.4 21:51:31 10° NNE 21:53:43 15° NE 21:53:43 15° NE visible
15 May 6.3 23:29:40 10° NW 23:30:18 14° NW 23:30:18 14° NW visible
